Regional Weather Roundup
Issued by NWS

Home | Current Version | Previous Version | Text Only | Print | Product List | Glossary On
Versions: 1 2 3 4 5 6 7 8 9 10 11 12 13 14 15 16 17 18 19 20 21 22 23 24 25 26 27 28 29 30 31 32 33 34 35 36 37 38 39 40 41 42 43 44 45 46 47 48 49 50
000
ASUS44 KOUN 301810
RWROK

WEATHER ROUNDUP FOR OKLAHOMA
NATIONAL WEATHER SERVICE NORMAN OK
100 PM CDT SUN APR 30 2017

NOTE: "FAIR" INDICATES FEW OR NO CLOUDS BELOW 12,000 FEET WITH NO
      SIGNIFICANT WEATHER AND/OR OBSTRUCTIONS TO VISIBILITY.

OKZ001>007-009>012-014-015-017-301900-
NORTHWEST OKLAHOMA AND THE PANHANDLE

CITY           SKY/WX    TMP DP  RH WIND       PRES   REMARKS
GAGE           LGT RAIN  42  37  82 NW38G48   29.56R WCI  30
6HR MIN TEMP:  35; 6HR MAX TEMP:  42; 6HR PCP:  0.02;

ENID/WOODRING  LGT RAIN  46  41  81 SW14G21   29.47F
$$

OKZ016-021>023-033>039-044-045-301900-
SOUTHWEST OKLAHOMA

CITY           SKY/WX    TMP DP  RH WIND       PRES   REMARKS
LAWTON/REGL    PTSUNNY   53  39  59 W23G40    29.67S
6HR MIN TEMP:  43; 6HR MAX TEMP:  53; 6HR PCP:  0.01;

LAWTON/FT SILL MOSUNNY   50  42  74 W23G35    29.65S
FREDERICK      LGT RAIN  51  37  58 W35G47    29.70S
CLINTON          N/A    N/A N/A N/A MISG      29.61S
HOBART         LGT RAIN  46  38  73 NW32G44   29.64R
ALTUS AFB      DRIZZLE   50  32  50 NW35G46   29.69F
$$

OKZ018>020-024>031-301900-
CENTRAL OKLAHOMA

CITY           SKY/WX    TMP DP  RH WIND       PRES   REMARKS
OKLAHOMA CITY  LGT RAIN  48  38  68 SW26G32   29.56F
6HR MIN TEMP:  42; 6HR MAX TEMP:  48; 6HR PCP:  0.03;

OKC/WILEY POST CLOUDY    49  39  68 SW23G33   29.54F
OKC/TINKER AFB CLOUDY    49  37  63 SW25G36   29.55F
GUTHRIE        LGT RAIN  48  39  71 SW18G28   29.52F
$$

OKZ008-013-054>072-301900-
NORTHEAST OKLAHOMA

CITY           SKY/WX    TMP DP  RH WIND       PRES   REMARKS
TULSA          LGT RAIN  49  41  74 S20G41    29.57S
6HR MIN TEMP:  49; 6HR MAX TEMP:  54; 6HR PCP: TRACE;

TULSA/JONES    CLOUDY    53  40  61 S24G33    29.57F
PONCA CITY     CLOUDY    47  37  68 S10G24    29.48S
BARTLESVILLE   CLOUDY    51  39  63 SW22G30   29.54F
MUSKOGEE       LGT RAIN  53  39  59 S18G38    29.65F
$$

OKZ032-040>043-046>053-073>077-301900-
SOUTH CENTRAL/SOUTHEAST OKLAHOMA

CITY           SKY/WX    TMP DP  RH WIND       PRES   REMARKS
ARDMORE/DWNTWN CLOUDY    55  32  41 NW16G29   29.71S
MCALESTER      CLOUDY    55  39  54 S21G32    29.67F
$$




USA.gov is the U.S. government's official web portal to all federal, state and local government web resources and services.